IRIDIUM 47 DEB, 40255

Orbit data source: Space-Track

IRIDIUM 47 DEB, 40255 is space debris in LEO originally from a launch on Sat, 20 Dec 1997 UTC launched from the Air Force Western Test Range (AFWTR). Debris objects in space refer to the collection of defunct objects orbiting the Earth. Examples of debris include non-operational satellites, rocket bodies, and fragments generated from explosions, collisions, or faulty payload assembly.

Loading next visibility...
Identifier
40255, 1997-082Q
Orbit
LEO
Country
Flag of USUS
Related business
Manufacturer
Unknown
Mission
Spacecraft
Bus & Motor
Unknown
Mass
Unknown
Launch date (UTC)
1997-12-20 (28 years ago)
Launch vehicle
Unknown
Launch site
Air Force Western Test Range (AFWTR)
Object type
Payload
Rocket body
Debris
Shape & HBR
Unknown
Radar Cross Section
Small (<0.1 m²)

Expand to show TLE details & history
Last TLE update: 20 hours ago

TLE from 20 hours ago
0 IRIDIUM 47 DEB
1 40255U 97082Q   25260.90822916  .00008150  00000-0  26680-2 0  9992
2 40255  86.2800 119.1934 0148030  61.9983 299.6098 14.32288123565296
Epoch: 2025-09-17T21:47Z
TLE epoch observation values (Epoch: 2025-09-17T21:47:50.999Z)
Latitude
-0.00003°
Longitude
155.15347°
Altitude
735.943 km
Speed
7.514 km/s
True Right ascension
07h 56m 46s
True Declination
0° 00' 00"
Sunlit
Object was in daylight at epoch
Visualization orbit readout
Latitude
Unknown
Longitude
Unknown
Altitude
Unknown
Speed
Unknown
Apparent Right ascension
Unknown
Apparent Declination
Unknown
Sunlit
N/A
Visualization observer readout
Local Sidereal Time
11:05:38
Azimuth
Unknown
Elevation
Unknown
Doppler factor
Unknown
Orbital elements
Apogee altitude
887.039 km
Perigee altitude
675.084 km
Semi-major axis
7,159.198 km
Eccentricity
0.0148
Inclination
86.28°
RAAN
119.1934°
Arg. of periapsis
61.9983°
True anomaly
298.12159°
Mean anomaly
299.6098°
Eccentric anomaly
298.86704°
Mean motion
3.583 °/min
Orbital period
100.47 mins
BSTAR
0.002668
Loading maneuver chart data...
Computing Atmospheric mass density...

Documentation

Showing up to 5 results
|